Погода в Коллонтае

Россия / Калужская область     55°01′54″N   36°31′52″E
темп.,
°C
ветер,
м/с
пор.,
м/с
влажн.,
%
обл.,
%
осадки,
мм/ч
давл.,
гПа
погр.,
м
25 июля, вс
вс2500:00+11зсз117414 0.0 101810
03:00+10сз11745 0.0 101910
06:00+12ю11705 0.0 102012
09:00+20зюз114519 0.0 1020434
12:00+23с213561 0.0 10202440
15:00+23юв113794 0.0 10201909
18:00+21зюз1352100 0.0 1021253
21:00+18вюв115565 0.0 102111
26 июля, пн
пн2600:00+14ююз11700 0.0 102310
03:00+13ю11706 0.0 102310
06:00+15юв116787 0.0 102325
09:00+18ю2362100 0.0 1023148
12:00+22ююз344827 0.0 1023645
15:00+26зюз243994 0.0 10222545
18:00+23юз235748 0.0 1021205
21:00+19зюз116723 0.0 102211
27 июля, вт
вт2700:00+18юз226757 0.0 102233
03:00+16зюз11823 0.0 102312
06:00+17зюз11813 0.0 102313
09:00+20юз117213 0.0 1022124
12:00+27юз22425 0.0 10211771
15:00+25зсз3455100 0.2 1020362
18:00+21всв227985 2.9 102065
21:00+17ююв22901 4.4 101936
28 июля, ср
ср2800:00+16ююв229110 0.4 101919
03:00+16ююз239445 0.4 101842
06:00+16юз2292100 0.0 101766
09:00+20ю2378100 0.0 1016269
12:00+20юз2477100 0.0 1016183
15:00+17юв31094100 1.0 1014388
18:00+18ю4119185 0.5 1011681
21:00+17юв3109786 2.1 1009448
29 июля, чт
чт2900:00+17юз3799100 0.1 1008224
03:00+17зюз3109967 0.1 1007379
06:00+16зюз412965 0.0 1008451
09:00+21з511740 0.0 1008775
12:00+26зсз694781 0.0 10072012
15:00+27зсз69416 0.0 10072392
18:00+26зсз59475 0.0 10071855
21:00+19зюз24690 0.0 100855